Location: Rancho Del Sol Observatory
(38.7214°N, 120.6350°W)
Time: 06:04:23
(UTC-08:00)

A-11 Canister half - Pass Details

Date: 30 January 2020
Orbit: 1517 x 1683 km, 47.2° (Epoch: 23 February)

Event Time Altitude Azimuth Distance (km) Brightness Sun altitude
Rises 07:03:51 0° 286° (WNW) 4,662 - -2.0°
Exits shadow 07:04:37 - 284° (WNW) 4,485 10.8 -1.9°
Reaches altitude 10° 07:09:05 10° 262° (W) 3,686 10.5 -1.1°
Maximum altitude 07:12:53 13° 237° (WSW) 3,446 10.5 -0.4°
Drops below altitude 10° 07:16:44 10° 212° (SSW) 3,713 10.9 0.3°
Sets 07:22:07 0° 188° (S) 4,724 11.8 1.3°
